OPS 4682 DEB, 38431

Orbit data source: Space-Track

OPS 4682 DEB, 38431 is space debris in LEO originally from a launch on Sat, 03 Apr 1965 UTC launched from the Air Force Western Test Range (AFWTR). Debris objects in space refer to the collection of defunct objects orbiting the Earth. Examples of debris include non-operational satellites, rocket bodies, and fragments generated from explosions, collisions, or faulty payload assembly.

Loading next visibility...
Identifier
38431, 1965-027EL
Orbit
LEO
Country
Flag of USUS
Related business
Manufacturer
Unknown
Mission
Spacecraft
Bus & Motor
Unknown
Mass
Unknown
Launch date (UTC)
1965-04-03 (61 years ago)
Launch vehicle
Unknown
Launch site
Air Force Western Test Range (AFWTR)
Object type
Payload
Rocket body
Debris
Shape & HBR
Unknown shape, 0.1 m
Radar Cross Section
Small (<0.1 m²)

Expand to show TLE details & history
Last TLE update: 18 hours ago

TLE from 18 hours ago
0 OPS 4682 DEB
1 38431U 65027EL  26103.95655851 -.00000563  00000-0 -18764-2 0  9999
2 38431  90.2371 356.1389 0026776  40.3984 319.9121 13.00666161656221
Epoch: 2026-04-13T22:57Z
TLE epoch observation values (Epoch: 2026-04-13T22:57:26.655Z)
Latitude
0.00003°
Longitude
169.63812°
Altitude
1,246.736 km
Speed
7.239 km/s
True Right ascension
23h 44m 33s
True Declination
0° 00' 00"
Sunlit
Object was in daylight at epoch
Visualization orbit readout
Latitude
Unknown
Longitude
Unknown
Altitude
Unknown
Speed
Unknown
Apparent Right ascension
Unknown
Apparent Declination
Unknown
Sunlit
N/A
Visualization observer readout
Local Sidereal Time
22:59:08
Azimuth
Unknown
Elevation
Unknown
Doppler factor
Unknown
Orbital elements
Apogee altitude
1,277.046 km
Perigee altitude
1,236.161 km
Semi-major axis
7,634.741 km
Eccentricity
0.00268
Inclination
90.2371°
RAAN
356.1389°
Arg. of periapsis
40.3984°
True anomaly
319.71401°
Mean anomaly
319.9121°
Eccentric anomaly
319.8131°
Mean motion
3.25351 °/min
Orbital period
110.65 mins
BSTAR
-0.0018764
Loading maneuver chart data...
Computing Atmospheric mass density...
Loading historical data...
Loading historical data...
Loading historical data...
Loading historical data...
Loading historical data...
Loading historical data...
Loading historical data...

Documentation

Showing up to 5 results
|